Time,TemperatureF,DewpointF,PressureIn,WindDirection,WindDirectionDegrees,WindSpeedMPH,WindSpeedGustMPH,Humidity,HourlyPrecipIn,Conditions,Clouds,dailyrainin,SolarRadiationWatts/m^2,SoftwareType,DateUTC
2013-03-30 00:02:00,46.0,39.0,-100.00,NNE,27,5.0,7.0,77,0.00,,,0.01,0.000000,,2013-03-30 07:02:00,
2013-03-30 00:12:00,46.0,39.0,-100.00,NNE,27,5.0,7.0,77,0.00,,,0.01,0.000000,,2013-03-30 07:12:00,
2013-03-30 00:22:00,46.0,39.0,-100.00,NNE,27,5.0,7.0,77,0.00,,,0.01,0.000000,,2013-03-30 07:22:00,
2013-03-30 00:32:00,46.0,39.0,-100.00,NNE,27,5.0,7.0,77,0.00,,,0.01,0.000000,,2013-03-30 07:32:00,
2013-03-30 00:52:00,47.0,38.0,-100.00,ENE,61,6.0,9.0,71,0.00,,,-99.99,0.000000,,2013-03-30 07:52:00,
2013-03-30 01:02:00,47.0,38.0,-100.00,ENE,61,6.0,9.0,71,0.00,,,-99.99,0.000000,,2013-03-30 08:02:00,
2013-03-30 01:12:00,47.0,38.0,-100.00,ENE,61,6.0,9.0,71,0.00,,,-99.99,0.000000,,2013-03-30 08:12:00,
2013-03-30 01:21:00,47.0,38.0,-100.00,ENE,61,6.0,9.0,71,0.00,,,-99.99,0.000000,,2013-03-30 08:21:00,
2013-03-30 01:31:00,47.0,38.0,-100.00,ENE,61,6.0,9.0,71,0.00,,,-99.99,0.000000,,2013-03-30 08:31:00,
2013-03-30 01:53:00,46.0,36.0,-100.00,NE,34,5.0,9.0,69,0.00,,,0.01,0.000000,,2013-03-30 08:53:00,
2013-03-30 02:02:00,46.0,36.0,-100.00,NE,34,5.0,9.0,69,0.00,,,0.01,0.000000,,2013-03-30 09:02:00,
2013-03-30 02:12:00,46.0,36.0,-100.00,NE,34,5.0,9.0,69,0.00,,,0.01,0.000000,,2013-03-30 09:12:00,
2013-03-30 02:22:00,46.0,36.0,-100.00,NE,34,5.0,9.0,69,0.00,,,0.01,0.000000,,2013-03-30 09:22:00,
2013-03-30 02:33:00,46.0,36.0,-100.00,NE,34,5.0,9.0,69,0.00,,,0.01,0.000000,,2013-03-30 09:33:00,
2013-03-30 02:53:00,45.0,37.0,-100.00,North,11,1.0,6.0,73,0.00,,,0.01,0.000000,,2013-03-30 09:53:00,
2013-03-30 03:02:00,45.0,37.0,-100.00,North,11,1.0,6.0,73,0.00,,,0.01,0.000000,,2013-03-30 10:02:00,
2013-03-30 03:12:00,45.0,37.0,-100.00,North,11,1.0,6.0,73,0.00,,,0.01,0.000000,,2013-03-30 10:12:00,
2013-03-30 03:23:00,45.0,37.0,-100.00,North,11,1.0,6.0,73,0.00,,,0.01,0.000000,,2013-03-30 10:23:00,
2013-03-30 03:32:00,45.0,37.0,-100.00,North,11,1.0,6.0,73,0.00,,,0.01,0.000000,,2013-03-30 10:32:00,
2013-03-30 03:52:00,45.0,36.0,-100.00,NNE,32,4.0,7.0,70,0.00,,,0.01,0.000000,,2013-03-30 10:52:00,
2013-03-30 04:03:00,45.0,36.0,-100.00,NNE,32,4.0,7.0,70,0.00,,,0.01,0.000000,,2013-03-30 11:03:00,
2013-03-30 04:12:00,45.0,36.0,-100.00,NNE,32,4.0,7.0,70,0.00,,,0.01,0.000000,,2013-03-30 11:12:00,
2013-03-30 04:22:00,45.0,36.0,-100.00,NNE,32,4.0,7.0,70,0.00,,,0.01,0.000000,,2013-03-30 11:22:00,
2013-03-30 04:32:00,45.0,36.0,-100.00,NNE,32,4.0,7.0,70,0.00,,,0.01,0.000000,,2013-03-30 11:32:00,
2013-03-30 04:53:00,45.0,36.0,-100.00,NE,48,3.0,6.0,70,0.00,,,0.01,0.000000,,2013-03-30 11:53:00,
2013-03-30 05:02:00,45.0,36.0,-100.00,NE,48,3.0,6.0,70,0.00,,,0.01,0.000000,,2013-03-30 12:02:00,
2013-03-30 05:12:00,45.0,36.0,-100.00,NE,48,3.0,6.0,70,0.00,,,0.01,0.000000,,2013-03-30 12:12:00,
2013-03-30 05:22:00,45.0,36.0,-100.00,NE,48,3.0,6.0,70,0.00,,,0.01,0.000000,,2013-03-30 12:22:00,
2013-03-30 05:32:00,45.0,36.0,-100.00,NE,48,3.0,6.0,70,0.00,,,0.01,0.000000,,2013-03-30 12:32:00,
2013-03-30 05:53:00,45.0,36.0,-100.00,ENE,63,4.0,5.0,70,0.00,,,0.01,0.000000,,2013-03-30 12:53:00,
2013-03-30 06:02:00,45.0,36.0,-100.00,ENE,63,4.0,5.0,70,0.00,,,0.01,0.000000,,2013-03-30 13:02:00,
2013-03-30 06:12:00,45.0,36.0,-100.00,ENE,63,4.0,5.0,70,0.00,,,0.01,0.000000,,2013-03-30 13:12:00,
2013-03-30 06:22:00,45.0,36.0,-100.00,ENE,63,4.0,5.0,70,0.00,,,0.01,0.000000,,2013-03-30 13:22:00,
2013-03-30 06:32:00,45.0,36.0,-100.00,ENE,63,4.0,5.0,70,0.00,,,0.01,0.000000,,2013-03-30 13:32:00,
2013-03-30 06:52:00,44.0,36.0,-100.00,NE,34,5.0,7.0,74,0.00,,,0.01,0.000000,,2013-03-30 13:52:00,
2013-03-30 07:02:00,44.0,36.0,-100.00,NE,34,5.0,7.0,74,0.00,,,0.01,0.000000,,2013-03-30 14:02:00,
2013-03-30 07:11:00,44.0,36.0,-100.00,NE,34,5.0,7.0,74,0.00,,,0.01,0.000000,,2013-03-30 14:11:00,
2013-03-30 07:22:00,44.0,36.0,-100.00,NE,34,5.0,7.0,74,0.00,,,0.01,0.000000,,2013-03-30 14:22:00,
2013-03-30 07:32:00,44.0,36.0,-100.00,NE,34,5.0,7.0,74,0.00,,,0.01,0.000000,,2013-03-30 14:32:00,
2013-03-30 07:52:00,46.0,37.0,-100.00,NE,53,2.0,5.0,72,0.00,,,0.01,26.000000,,2013-03-30 14:52:00,
2013-03-30 08:02:00,46.0,37.0,-100.00,NE,53,2.0,5.0,72,0.00,,,0.01,26.000000,,2013-03-30 15:02:00,
2013-03-30 08:53:00,51.0,41.0,-100.00,South,185,2.0,4.0,69,0.00,,,0.01,140.000000,,2013-03-30 15:53:00,
2013-03-30 09:03:00,51.0,41.0,-100.00,South,185,2.0,4.0,69,0.00,,,0.01,140.000000,,2013-03-30 16:03:00,
2013-03-30 09:52:00,53.0,40.0,-100.00,SSW,198,3.0,4.0,62,-99.99,,,0.01,380.000000,,2013-03-30 16:52:00,
2013-03-30 10:02:00,53.0,40.0,-100.00,SSW,198,3.0,4.0,62,-99.99,,,0.01,380.000000,,2013-03-30 17:02:00,
2013-03-30 10:13:00,53.0,40.0,-100.00,SSW,198,3.0,4.0,62,-99.99,,,0.01,380.000000,,2013-03-30 17:13:00,
2013-03-30 10:22:00,53.0,40.0,-100.00,SSW,198,3.0,4.0,62,-99.99,,,0.01,380.000000,,2013-03-30 17:22:00,
2013-03-30 10:32:00,53.0,40.0,-100.00,SSW,198,3.0,4.0,62,-99.99,,,0.01,380.000000,,2013-03-30 17:32:00,
2013-03-30 10:53:00,55.0,43.0,-100.00,South,171,4.0,6.0,63,0.00,,,0.01,551.000000,,2013-03-30 17:53:00,
2013-03-30 11:02:00,55.0,43.0,-100.00,South,171,4.0,6.0,63,0.00,,,0.01,551.000000,,2013-03-30 18:02:00,
2013-03-30 11:12:00,55.0,43.0,-100.00,South,171,4.0,6.0,63,0.00,,,0.01,551.000000,,2013-03-30 18:12:00,
2013-03-30 11:22:00,55.0,43.0,-100.00,South,171,4.0,6.0,63,0.00,,,0.01,551.000000,,2013-03-30 18:22:00,
2013-03-30 11:32:00,55.0,43.0,-100.00,South,171,4.0,6.0,63,0.00,,,0.01,551.000000,,2013-03-30 18:32:00,
2013-03-30 11:53:00,56.0,44.0,-100.00,SE,126,4.0,7.0,64,0.00,,,0.01,685.000000,,2013-03-30 18:53:00,
2013-03-30 12:02:00,56.0,44.0,-100.00,SE,126,4.0,7.0,64,0.00,,,0.01,685.000000,,2013-03-30 19:02:00,
2013-03-30 12:12:00,56.0,44.0,-100.00,SE,126,4.0,7.0,64,0.00,,,0.01,685.000000,,2013-03-30 19:12:00,
2013-03-30 12:22:00,56.0,44.0,-100.00,SE,126,4.0,7.0,64,0.00,,,0.01,685.000000,,2013-03-30 19:22:00,
2013-03-30 12:32:00,56.0,44.0,-100.00,SE,126,4.0,7.0,64,0.00,,,0.01,685.000000,,2013-03-30 19:32:00,
2013-03-30 12:53:00,58.0,44.0,-100.00,East,100,4.0,8.0,59,0.00,,,-99.99,771.000000,,2013-03-30 19:53:00,
2013-03-30 13:02:00,58.0,44.0,-100.00,East,100,4.0,8.0,59,0.00,,,-99.99,771.000000,,2013-03-30 20:02:00,
2013-03-30 13:12:00,58.0,44.0,-100.00,East,100,4.0,8.0,59,0.00,,,-99.99,771.000000,,2013-03-30 20:12:00,
2013-03-30 13:21:00,58.0,44.0,-100.00,East,100,4.0,8.0,59,0.00,,,-99.99,771.000000,,2013-03-30 20:21:00,
2013-03-30 13:32:00,58.0,44.0,-100.00,East,100,4.0,8.0,59,0.00,,,-99.99,771.000000,,2013-03-30 20:32:00,
2013-03-30 13:53:00,60.0,40.0,-100.00,ESE,114,5.0,10.0,48,0.00,,,0.01,803.000000,,2013-03-30 20:53:00,
2013-03-30 14:02:00,60.0,40.0,-100.00,ESE,114,5.0,10.0,48,0.00,,,0.01,803.000000,,2013-03-30 21:02:00,
2013-03-30 14:12:00,60.0,40.0,-100.00,ESE,114,5.0,10.0,48,0.00,,,0.01,803.000000,,2013-03-30 21:12:00,
2013-03-30 14:22:00,60.0,40.0,-100.00,ESE,114,5.0,10.0,48,0.00,,,0.01,803.000000,,2013-03-30 21:22:00,
2013-03-30 14:32:00,60.0,40.0,-100.00,ESE,114,5.0,10.0,48,0.00,,,0.01,803.000000,,2013-03-30 21:32:00,
2013-03-30 14:53:00,62.0,40.0,-100.00,ESE,123,5.0,11.0,45,0.00,,,-99.99,776.000000,,2013-03-30 21:53:00,
2013-03-30 15:02:00,62.0,40.0,-100.00,ESE,123,5.0,11.0,45,0.00,,,-99.99,776.000000,,2013-03-30 22:02:00,
2013-03-30 15:12:00,62.0,40.0,-100.00,ESE,123,5.0,11.0,45,0.00,,,-99.99,776.000000,,2013-03-30 22:12:00,
2013-03-30 15:23:00,62.0,40.0,-100.00,ESE,123,5.0,11.0,45,0.00,,,-99.99,776.000000,,2013-03-30 22:23:00,
2013-03-30 15:32:00,62.0,40.0,-100.00,ESE,123,5.0,11.0,45,0.00,,,-99.99,776.000000,,2013-03-30 22:32:00,
2013-03-30 15:53:00,63.0,39.0,-100.00,SE,124,5.0,11.0,41,0.00,,,0.00,697.000000,,2013-03-30 22:53:00,
2013-03-30 16:02:00,63.0,39.0,-100.00,SE,124,5.0,11.0,41,0.00,,,0.00,697.000000,,2013-03-30 23:02:00,
2013-03-30 16:12:00,63.0,39.0,-100.00,SE,124,5.0,11.0,41,0.00,,,0.00,697.000000,,2013-03-30 23:12:00,
2013-03-30 16:22:00,63.0,39.0,-100.00,SE,124,5.0,11.0,41,0.00,,,0.00,697.000000,,2013-03-30 23:22:00,
2013-03-30 16:32:00,63.0,39.0,-100.00,SE,124,5.0,11.0,41,0.00,,,0.00,697.000000,,2013-03-30 23:32:00,
2013-03-30 16:53:00,62.0,37.0,-100.00,NE,54,6.0,8.0,39,0.00,,,0.00,428.000000,,2013-03-30 23:53:00,
2013-03-30 17:02:00,62.0,37.0,-100.00,NE,54,6.0,8.0,39,0.00,,,0.00,428.000000,,2013-03-31 00:02:00,
2013-03-30 17:12:00,62.0,37.0,-100.00,NE,54,6.0,8.0,39,0.00,,,0.00,428.000000,,2013-03-31 00:12:00,
2013-03-30 17:22:00,62.0,37.0,-100.00,NE,54,6.0,8.0,39,0.00,,,0.00,428.000000,,2013-03-31 00:22:00,
2013-03-30 17:32:00,62.0,37.0,-100.00,NE,54,6.0,8.0,39,0.00,,,0.00,428.000000,,2013-03-31 00:32:00,
2013-03-30 17:53:00,58.0,38.0,-100.00,NNE,29,10.0,15.0,48,0.00,,,0.00,55.000000,,2013-03-31 00:53:00,
2013-03-30 18:02:00,58.0,38.0,-100.00,NNE,29,10.0,15.0,48,0.00,,,0.00,55.000000,,2013-03-31 01:02:00,
2013-03-30 18:12:00,58.0,38.0,-100.00,NNE,29,10.0,15.0,48,0.00,,,0.00,55.000000,,2013-03-31 01:12:00,
2013-03-30 18:22:00,58.0,38.0,-100.00,NNE,29,10.0,15.0,48,0.00,,,0.00,55.000000,,2013-03-31 01:22:00,
2013-03-30 18:32:00,58.0,38.0,-100.00,NNE,29,10.0,15.0,48,0.00,,,0.00,55.000000,,2013-03-31 01:32:00,
2013-03-30 18:53:00,57.0,40.0,-100.00,NNE,23,11.0,16.0,53,0.00,,,-99.99,137.000000,,2013-03-31 01:53:00,
2013-03-30 19:02:00,57.0,40.0,-100.00,NNE,23,11.0,16.0,53,0.00,,,-99.99,137.000000,,2013-03-31 02:02:00,
2013-03-30 19:12:00,57.0,40.0,-100.00,NNE,23,11.0,16.0,53,0.00,,,-99.99,137.000000,,2013-03-31 02:12:00,
2013-03-30 19:22:00,57.0,40.0,-100.00,NNE,23,11.0,16.0,53,0.00,,,-99.99,137.000000,,2013-03-31 02:22:00,
2013-03-30 19:32:00,57.0,40.0,-100.00,NNE,23,11.0,16.0,53,0.00,,,-99.99,137.000000,,2013-03-31 02:32:00,
2013-03-30 19:52:00,53.0,39.0,-100.00,NNE,19,9.0,17.0,58,0.00,,,0.00,30.000000,,2013-03-31 02:52:00,
2013-03-30 20:02:00,53.0,39.0,-100.00,NNE,19,9.0,17.0,58,0.00,,,0.00,30.000000,,2013-03-31 03:02:00,
2013-03-30 20:12:00,53.0,39.0,-100.00,NNE,19,9.0,17.0,58,0.00,,,0.00,30.000000,,2013-03-31 03:12:00,
2013-03-30 20:22:00,53.0,39.0,-100.00,NNE,19,9.0,17.0,58,0.00,,,0.00,30.000000,,2013-03-31 03:22:00,
2013-03-30 20:32:00,53.0,39.0,-100.00,NNE,19,9.0,17.0,58,0.00,,,0.00,30.000000,,2013-03-31 03:32:00,
2013-03-30 20:54:00,51.0,37.0,-100.00,North,351,4.0,15.0,59,0.00,,,0.00,0.000000,,2013-03-31 03:54:00,
2013-03-30 21:02:00,51.0,-99.9,-100.00,North,351,4.0,15.0,59,0.00,,,0.00,0.000000,,2013-03-31 04:02:00,
2013-03-30 21:12:00,51.0,37.0,-100.00,North,351,4.0,15.0,59,0.00,,,0.00,0.000000,,2013-03-31 04:12:00,
2013-03-30 21:22:00,51.0,37.0,-100.00,North,351,4.0,15.0,59,0.00,,,0.00,0.000000,,2013-03-31 04:22:00,
2013-03-30 21:32:00,51.0,37.0,-100.00,North,351,4.0,15.0,59,0.00,,,0.00,0.000000,,2013-03-31 04:32:00,
2013-03-30 21:52:00,49.0,35.0,-100.00,NNW,337,3.0,10.0,59,0.00,,,0.00,0.000000,,2013-03-31 04:52:00,
2013-03-30 22:02:00,49.0,35.0,-100.00,NNW,337,3.0,10.0,59,0.00,,,0.00,0.000000,,2013-03-31 05:02:00,
2013-03-30 22:12:00,49.0,35.0,-100.00,NNW,337,3.0,10.0,59,0.00,,,0.00,0.000000,,2013-03-31 05:12:00,
2013-03-30 22:22:00,49.0,35.0,-100.00,NNW,337,3.0,10.0,59,0.00,,,0.00,0.000000,,2013-03-31 05:22:00,
2013-03-30 22:32:00,49.0,35.0,-100.00,NNW,337,3.0,10.0,59,0.00,,,0.00,0.000000,,2013-03-31 05:32:00,
2013-03-30 22:53:00,50.0,35.0,-100.00,North,6,4.0,11.0,57,0.00,,,0.00,0.000000,,2013-03-31 05:53:00,
2013-03-30 23:01:00,50.0,35.0,-100.00,North,6,4.0,11.0,57,0.00,,,0.00,0.000000,,2013-03-31 06:01:00,
2013-03-30 23:12:00,50.0,35.0,-100.00,North,6,4.0,11.0,57,0.00,,,0.00,0.000000,,2013-03-31 06:12:00,
2013-03-30 23:22:00,50.0,35.0,-100.00,North,6,4.0,11.0,57,0.00,,,0.00,0.000000,,2013-03-31 06:22:00,
2013-03-30 23:32:00,50.0,35.0,-100.00,North,6,4.0,11.0,57,0.00,,,0.00,0.000000,,2013-03-31 06:32:00,
2013-03-30 23:52:00,51.0,35.0,-100.00,NNE,15,7.0,14.0,55,0.00,,,0.00,0.000000,,2013-03-31 06:52:00,